{"data":{"norad_id":69078,"epoch":"2026-05-25T04:55:54.286752Z","epoch_age_seconds":60452,"freshness":"FRESH","line1":"1 69078U 26104F   26145.20548943  .00000081  00000+0  32385-4 0  9999","line2":"2 69078  88.9868 344.2496 0003684 159.9314 200.2021 14.18144245  1826","mean_motion":14.18144245,"eccentricity":0.0003684,"inclination_deg":88.9868,"raan_deg":344.2496,"arg_perigee_deg":159.9314,"mean_anomaly_deg":200.2021,"bstar":3.2385e-5,"rev_number":182,"period_min":101.54115176062,"perigee_km":828.97956966116,"apogee_km":834.29173014961,"semimajor_km":7209.7726499054,"source":"CELESTRAK","updated_at":"2026-05-25T13:38:09.049961Z"}}